Location: Oberkirch
(48.5323°N, 8.0787°E)
Time: 06:05:26
(UTC+00:00)

AO-85 - Pass Details

Date: 21 March 2026
Orbit: 507 x 686 km, 64.8° (Epoch: 14 April)

Event Time Altitude Azimuth Distance (km) Brightness Sun altitude
Exits shadow 03:29:24 30° 316° (NW) 947 ? -20.0°
Maximum altitude 03:29:31 30° 319° (NW) 946 ? -20.0°
Drops below altitude 10° 03:32:58 10° 23° (NNE) 1,737 ? -19.5°
Sets 03:35:19 0° 34° (NE) 2,621 ? -19.1°
